TimePST,TemperatureF,Dew PointF,Humidity,Sea Level PressureIn,VisibilityMPH,Wind Direction,Wind SpeedMPH,Gust SpeedMPH,PrecipitationIn,Events,Conditions,WindDirDegrees,DateUTC
12:53 AM,54.0,26.1,34,30.36,10.0,Calm,Calm,-,N/A,,Clear,0,2013-03-02 08:53:00
1:53 AM,50.0,25.0,38,30.38,10.0,WNW,3.5,-,N/A,,Clear,300,2013-03-02 09:53:00
2:53 AM,51.1,26.1,38,30.35,10.0,North,3.5,-,N/A,,Clear,350,2013-03-02 10:53:00
3:53 AM,51.1,26.1,38,30.35,10.0,Calm,Calm,-,N/A,,Clear,0,2013-03-02 11:53:00
4:53 AM,46.9,25.0,42,30.36,10.0,NW,4.6,-,N/A,,Clear,310,2013-03-02 12:53:00
5:53 AM,46.9,26.1,44,30.37,10.0,NW,5.8,-,N/A,,Clear,310,2013-03-02 13:53:00
6:53 AM,46.9,27.0,46,30.38,10.0,NNW,4.6,-,N/A,,Clear,330,2013-03-02 14:53:00
7:53 AM,55.0,27.0,34,30.38,10.0,Calm,Calm,-,N/A,,Clear,0,2013-03-02 15:53:00
8:53 AM,59.0,26.1,28,30.38,10.0,SSE,3.5,-,N/A,,Clear,150,2013-03-02 16:53:00
9:53 AM,62.1,27.0,26,30.36,10.0,SSE,3.5,-,N/A,,Clear,150,2013-03-02 17:53:00
10:53 AM,64.9,25.0,22,30.34,10.0,SE,5.8,-,N/A,,Clear,140,2013-03-02 18:53:00
11:53 AM,68.0,26.1,21,30.29,10.0,SSE,6.9,-,N/A,,Clear,150,2013-03-02 19:53:00
12:53 PM,71.1,25.0,18,30.24,10.0,SE,10.4,-,N/A,,Clear,140,2013-03-02 20:53:00
1:53 PM,72.0,25.0,17,30.21,10.0,SE,5.8,-,N/A,,Clear,140,2013-03-02 21:53:00
2:53 PM,73.0,24.1,16,30.18,10.0,SE,5.8,-,N/A,,Clear,130,2013-03-02 22:53:00
3:53 PM,73.0,24.1,16,30.15,10.0,SSE,5.8,-,N/A,,Clear,160,2013-03-02 23:53:00
4:53 PM,72.0,25.0,17,30.14,10.0,SE,3.5,-,N/A,,Clear,140,2013-03-03 00:53:00
5:53 PM,68.0,25.0,20,30.13,10.0,ENE,4.6,-,N/A,,Clear,70,2013-03-03 01:53:00
6:53 PM,66.9,26.1,21,30.12,10.0,East,3.5,-,N/A,,Clear,80,2013-03-03 02:53:00
7:53 PM,66.0,26.1,22,30.11,10.0,Calm,Calm,-,N/A,,Clear,0,2013-03-03 03:53:00
8:53 PM,63.0,28.0,27,30.11,10.0,Calm,Calm,-,N/A,,Clear,0,2013-03-03 04:53:00
9:53 PM,63.0,27.0,26,30.09,10.0,South,3.5,-,N/A,,Clear,170,2013-03-03 05:53:00
10:53 PM,59.0,28.0,31,30.08,10.0,Calm,Calm,-,N/A,,Clear,0,2013-03-03 06:53:00
11:53 PM,60.1,28.0,30,30.06,10.0,NE,4.6,-,N/A,,Clear,50,2013-03-03 07:53:00